Regional Weather Roundup
Issued by NWS

Home | Current Version | Previous Version | Graphics & Text | Print | Product List | Glossary On
Versions: 1 2 3 4 5 6 7 8 9 10 11 12 13 14 15 16 17 18 19 20 21 22 23 24 25 26 27 28 29 30 31 32 33 34 35 36 37 38 39 40 41 42 43 44 45 46 47 48 49 50
000
ASUS43 KLOT 211806
RWRIL

ILLINOIS REGIONAL WEATHER ROUNDUP
NATIONAL WEATHER SERVICE CHICAGO/ROMEOVILLE IL
100 PM CDT TUE OCT 21 2014

NOTE: "FAIR" INDICATES FEW OR NO CLOUDS BELOW 12,000 FEET WITH NO
SIGNIFICANT WEATHER AND/OR OBSTRUCTIONS TO VISIBILITY.

* THESE STATIONS ARE NOT UNDER NWS QUALITY CONTROL. THEY ALSO MAY NOT
  REPORT WEATHER SUCH AS PRECIPITATION OR FOG.

ILZ001-002-007-009-015-016-024-211900-
NORTHWEST ILLINOIS

CITY           SKY/WX    TMP DP  RH WIND       PRES   REMARKS
MOLINE         SUNNY     57  40  52 NE6       30.19S
6HR MIN TEMP:  36; 6HR MAX TEMP:  58;

STERLING*      MOSUNNY   55  39  54 N3        30.20S
SAVANNA*       SUNNY     56  37  47 NE8       30.21S
$$

ILZ003-004-008-010-011-017-018-211900-
NORTH CENTRAL ILLINOIS

CITY           SKY/WX    TMP DP  RH WIND       PRES   REMARKS
ROCKFORD       PTSUNNY   54  38  54 N9        30.22S
6HR MIN TEMP:  46; 6HR MAX TEMP:  54;

FREEPORT*      MOSUNNY   51  37  59 NE10      30.22S
ROCHELLE*      CLOUDY    53  38  57 N10       30.20S
DE KALB*       PTSUNNY   50  37  62 N9        30.19S
PERU*          MOSUNNY   56  38  50 NE12      30.18F
$$

ILZ005-006-012>014-019>023-211900-
NORTHEAST ILLINOIS

CITY           SKY/WX    TMP DP  RH WIND       PRES   REMARKS
CHICAGO-OHARE  CLOUDY    52  40  63 NE18      30.17S
6HR MIN TEMP:  45; 6HR MAX TEMP:  53;

CHICAGO-MIDWAY CLOUDY    53  43  68 N15G22    30.17R
6HR MIN TEMP:  49; 6HR MAX TEMP:  54;

AURORA         PTSUNNY   53  38  56 NE10      30.18S
6HR MIN TEMP:  40; 6HR MAX TEMP:  55;

LANSING*       RAIN      49  45  85 N9G20     30.16S
JOLIET*        CLOUDY    53  41  64 NE8       30.17S
WAUKEGAN       CLOUDY    48  39  71 N9        30.19S
6HR MIN TEMP:  45; 6HR MAX TEMP:  49;

DUPAGE AIRPORT PTSUNNY   57  42  57 N13       30.17S
6HR MIN TEMP:  42; 6HR MAX TEMP:  57;

KANKAKEE*      CLOUDY    54  43  67 N12       30.16S
WHEELING       CLOUDY    53  41  63 N9G22     30.19R
6HR MIN TEMP:  47; 6HR MAX TEMP:  54;

MORRIS*        CLOUDY    54  41  62 NE6       30.17R
ROMEOVILLE*    CLOUDY    53  40  62 NE10      30.17S
NORTHERLY ISL    N/A     50  44  80 N16         N/A
$$

LMZ740>746-211900-
SOUTHERN LAKE MICHIGAN

STATION/POSITION SKY/WX   TEMP    WIND        PRES    VSBY  WAVE
                          AIR SEA DIR/SP/G                  HT/PER
                          (F)     (DEG/KT/KT) (MB)    (MI)  (FT/S)
SOUTHERN BUOY              49 54  360/ 16/ 19 1021.5R         6/ 7
WAUKEGAN HARBOR            49     350/ 14/ 19   N/A
HARRISON CRIB              49     350/ 25/ 28   N/A
BURNHAM HARBOR             50     340/ 14/ 20   N/A
CALUMET HARBOR             49     340/ 16/ 25 1020.2
MICHIGAN CITY              51     360/ 22/ 25   N/A
$$

ILZ025>027-034>036-040-047-049-050-058-095>099-211900-
WEST-CENTRAL ILLINOIS

CITY           SKY/WX    TMP DP  RH WIND       PRES   REMARKS
QUINCY         SUNNY     62  43  49 NE8       30.15F
GALESBURG*     SUNNY     57  42  56 N8        30.17F
MACOMB*        SUNNY     59  42  51 NE9       30.18F
JACKSONVILLE*  SUNNY     62  43  49 NW8       30.15F
PITTSFIELD*    SUNNY     62  43  50 N7        30.16F
$$

ILZ028>032-037-038-041>044-048-051>054-059>061-211900-
CENTRAL ILLINOIS

CITY           SKY/WX    TMP DP  RH WIND       PRES   REMARKS
BLOOMINGTON    MOSUNNY   57  39  51 NE13      30.17S
DECATUR        MOSUNNY   60  44  55 N12       30.15S
PEORIA         SUNNY     59  39  47 N9        30.17F
6HR MIN TEMP:  45; 6HR MAX TEMP:  59;

LACON*         SUNNY     56  37  48 N8        30.17F
LINCOLN*       SUNNY     60  40  47 N9        30.14F
SPRINGFIELD    SUNNY     61  43  51 N10G18    30.15F
6HR MIN TEMP:  39; 6HR MAX TEMP:  62;

TAYLORVILLE    PTSUNNY   59  43  55 N14       30.14F
$$

ILZ033-039-045-046-055>057-062-063-211900-
EAST-CENTRAL ILLINOIS

CITY           SKY/WX    TMP DP  RH WIND       PRES   REMARKS
CHAMPAIGN      PTSUNNY   60  39  45 N10G20    30.14S
DANVILLE*      CLOUDY    55  40  57 N12       30.11S
RANTOUL*       MOSUNNY   59  35  40 N17       30.15S
MATTOON        CLOUDY    57  42  57 N14       30.12F
PARIS*         CLOUDY    56  42  60 N6        30.14R
$$

ILZ079-100>102-211900-
SOUTHWEST ILLINOIS

CITY           SKY/WX    TMP DP  RH WIND       PRES   REMARKS
BELLEVILLE     SUNNY     66  47  50 N9        30.12F
CAHOKIA*       SUNNY     66  46  48 NE10      30.13F
SPARTA*        SUNNY     65  46  50 N7        30.12F
$$

ILZ064>066-069>071-074>076-080>082-084>086-088>090-092>094-211900-
SOUTH-CENTRAL ILLINOIS

CITY           SKY/WX    TMP DP  RH WIND       PRES   REMARKS
CARBONDALE     SUNNY     67  46  47 VRB7      30.11F
6HR MIN TEMP:  40; 6HR MAX TEMP:  68;

CAIRO*         SUNNY     74  43  32 NW9G16    30.09F
EFFINGHAM*     PTSUNNY   61  39  44 N9        30.13S
MARION         SUNNY     66  50  55 N12       30.11F
MT. VERNON     SUNNY     63  46  55 N5        30.12F
CENTRALIA*     SUNNY     63  43  46 NW8       30.11F
SALEM*         MOSUNNY   66  47  49 N13       30.12F
METROPOLIS*    SUNNY     71  46  40 NW12G17   30.08S
$$

ILZ067-068-072-073-078-083-087-091-211900-
SOUTHEAST ILLINOIS

CITY           SKY/WX    TMP DP  RH WIND       PRES   REMARKS
LAWRENCEVILLE  PTSUNNY   60  42  51 N13       30.11F
FLORA*         SUNNY     62  44  53 N8        30.12S
FAIRFIELD*     MOSUNNY   63  44  50 N9G16     30.10F
HARRISBURG*    SUNNY     65  46  50 N8        30.11F
ROBINSON*      MOSUNNY   63  44  50 N13       30.12F
CARMI*         MOSUNNY   67  47  48 N10G16    30.10S
$$

ABBREVIATIONS USED IN REMARKS
   TC - TEMPERATURE IN CELSIUS
  WCI - WIND CHILL INDEX
   HX - HEAT INDEX
  VSB - VISIBILITY
$$




USA.gov is the U.S. government's official web portal to all federal, state and local government web resources and services.